Weather History for Willmar, MN

Change the Weather History Date:

Tuesday, January 8, 2013

  Actual Average (KLJF) Record (KLJF)
Temperature  
Mean Temperature 22 °F -  
Max Temperature 33 °F 18 °F 53 °F (2003)
Min Temperature 12 °F -2 °F -24 °F (1966)
Degree Days  
Heating Degree Days 42    
Moisture  
Dew Point 18 °F    
Average Humidity 84    
Maximum Humidity 93    
Minimum Humidity 70    
Precipitation  
Precipitation 0.00 in - - ()
Sea Level Pressure  
Sea Level Pressure 29.83 in    
Wind  
Wind Speed 7 mph (SSE)    
Max Wind Speed 23 mph    
Max Gust Speed 22 mph    
Visibility 9 miles    
Events Snow    
Averages and records for this station are not official NWS values.
T = Trace of Precipitation, MM = Missing Value Source: NWS Daily Summary

Daily Weather History Graph

Daily Weather History Graph

Search for Another Location

Airport:

Trip Planner

Search our weather history database for the weather conditions in past years. The results will help you decide how hot, cold, wet, or windy it might be!

Date:

Astronomy

Jan. 08, 2013 Rise Set
Actual Time 7:58 AM CST 4:56 PM CST
Civil Twilight 7:25 AM CST 5:30 PM CST
Nautical Twilight 6:48 AM CST 6:06 PM CST
Astronomical Twilight 6:12 AM CST 6:42 PM CST
Moon 4:31 AM CST (1/8) 2:00 PM CST (1/8)
Length of Visible Light 10h 05m
Length of Day
8h 58m
Waning Crescent, 13% of the Moon is Illuminated
Jan 8
Waning Crescent
Jan 11
New
Jan 18
First Quarter
Jan 26
Full
Feb 3
Last Quarter

Hourly Weather History & Observations

Time (CST) Temp. Windchill Dew Point Humidity Pressure Visibility Wind Dir Wind Speed Gust Speed Precip Events Conditions
12:15 AM 17.6 °F 12.3 °F 15.8 °F 93% 29.95 in 10.0 mi South 3.5 mph - N/A   Scattered Clouds
12:56 AM 15.8 °F - 12.2 °F 86% 29.94 in 10.0 mi Calm Calm - N/A   Overcast
1:15 AM 17.6 °F - 14.0 °F 86% 29.94 in 10.0 mi Calm Calm - N/A   Mostly Cloudy
1:35 AM 17.6 °F 10.7 °F 14.0 °F 86% 29.93 in 10.0 mi SSE 4.6 mph - N/A   Mostly Cloudy
1:56 AM 14.0 °F 5.1 °F 10.4 °F 86% 29.93 in 10.0 mi SE 5.8 mph - N/A   Scattered Clouds
2:15 AM 14.0 °F 5.1 °F 10.4 °F 86% 29.93 in 10.0 mi ESE 5.8 mph - N/A   Clear
2:35 AM 15.8 °F 8.6 °F 12.2 °F 86% 29.93 in 10.0 mi SE 4.6 mph - N/A   Clear
2:56 AM 15.8 °F - 12.2 °F 86% 29.92 in 10.0 mi Calm Calm - N/A   Clear
3:15 AM 15.8 °F 10.2 °F 12.2 °F 86% 29.93 in 10.0 mi SE 3.5 mph - N/A   Clear
3:35 AM 12.2 °F 6.1 °F 10.4 °F 92% 29.92 in 7.0 mi East 3.5 mph - N/A   Clear
3:56 AM 15.8 °F - 14.0 °F 93% 29.91 in 7.0 mi Calm Calm - N/A   Clear
4:15 AM 14.0 °F - 10.4 °F 86% 29.90 in 5.0 mi Calm Calm - N/A   Clear
4:35 AM 12.2 °F 6.1 °F 8.6 °F 85% 29.90 in 7.0 mi East 3.5 mph - N/A   Clear
4:56 AM 12.2 °F 6.1 °F 8.6 °F 85% 29.90 in 7.0 mi East 3.5 mph - N/A   Clear
5:15 AM 12.2 °F 4.3 °F 10.4 °F 92% 29.90 in 10.0 mi SE 4.6 mph - N/A   Clear
5:35 AM 12.2 °F 4.3 °F 8.6 °F 85% 29.90 in 10.0 mi ESE 4.6 mph - N/A   Clear
5:56 AM 15.8 °F 7.2 °F 12.2 °F 86% 29.89 in 10.0 mi ESE 5.8 mph - N/A   Clear
6:15 AM 15.8 °F 6.1 °F 14.0 °F 93% 29.88 in 10.0 mi ESE 6.9 mph - N/A   Clear
6:35 AM 17.6 °F 7.3 °F 15.8 °F 93% 29.88 in 10.0 mi East 8.1 mph - N/A   Clear
6:55 AM 19.4 °F 9.5 °F 15.8 °F 86% 29.88 in 10.0 mi ESE 8.1 mph - N/A   Clear
7:15 AM 17.6 °F 7.3 °F 15.8 °F 93% 29.88 in 10.0 mi SE 8.1 mph - N/A   Clear
7:35 AM 19.4 °F 8.6 °F 15.8 °F 86% 29.88 in 10.0 mi SE 9.2 mph - N/A   Clear
7:55 AM 19.4 °F 8.6 °F 15.8 °F 86% 29.88 in 10.0 mi SE 9.2 mph - N/A   Clear
8:15 AM 19.4 °F 8.6 °F 15.8 °F 86% 29.87 in 10.0 mi ESE 9.2 mph - N/A   Clear
8:36 AM 19.4 °F 7.9 °F 15.8 °F 86% 29.86 in 10.0 mi ESE 10.4 mph - N/A   Clear
8:55 AM 19.4 °F 10.4 °F 15.8 °F 86% 29.87 in 10.0 mi ESE 6.9 mph - N/A   Clear
9:15 AM 19.4 °F 9.5 °F 15.8 °F 86% 29.88 in 10.0 mi SE 8.1 mph - N/A   Clear
9:36 AM 21.2 °F 10.9 °F 15.8 °F 80% 29.85 in 10.0 mi ESE 9.2 mph - N/A   Clear
9:55 AM 21.2 °F 10.1 °F 17.6 °F 86% 29.85 in 10.0 mi ESE 10.4 mph - N/A   Clear
10:15 AM 21.2 °F 11.7 °F 17.6 °F 86% 29.85 in 10.0 mi SE 8.1 mph - N/A   Clear
10:36 AM 23.0 °F 13.1 °F 17.6 °F 80% 29.84 in 10.0 mi SE 9.2 mph - N/A   Clear
10:55 AM 24.8 °F 14.6 °F 17.6 °F 74% 29.83 in 10.0 mi SE 10.4 mph - N/A   Clear
11:15 AM 24.8 °F 14.6 °F 19.4 °F 80% 29.83 in 10.0 mi SSE 10.4 mph - N/A   Clear
11:36 AM 24.8 °F 14.6 °F 19.4 °F 80% 29.82 in 10.0 mi SE 10.4 mph - N/A   Clear
11:55 AM 26.6 °F 15.7 °F 21.2 °F 80% 29.78 in 7.0 mi ESE 12.7 mph - N/A   Clear
12:15 PM 26.6 °F 12.0 °F 21.2 °F 80% 29.74 in 7.0 mi ESE 23.0 mph - N/A   Clear
12:36 PM 26.6 °F 14.7 °F 21.2 °F 80% 29.71 in 7.0 mi ESE 15.0 mph 21.9 mph N/A   Clear
12:55 PM 26.6 °F 12.7 °F 21.2 °F 80% 29.69 in 7.0 mi ESE 20.7 mph - N/A   Clear
1:15 PM 26.6 °F 15.7 °F 21.2 °F 80% 29.71 in 7.0 mi SSE 12.7 mph - N/A   Clear
1:55 PM 26.6 °F 17.5 °F 21.2 °F 80% 29.74 in 7.0 mi SSE 9.2 mph - N/A   Clear
2:15 PM 26.6 °F 14.7 °F 21.2 °F 80% 29.71 in 7.0 mi SE 15.0 mph - N/A   Clear
2:36 PM 26.6 °F 15.7 °F 21.2 °F 80% 29.72 in 7.0 mi SSE 12.7 mph - N/A   Clear
2:55 PM 26.6 °F 15.7 °F 21.2 °F 80% 29.72 in 7.0 mi SSE 12.7 mph - N/A   Clear
3:15 PM 26.6 °F 17.5 °F 21.2 °F 80% 29.73 in 7.0 mi SSE 9.2 mph - N/A   Clear
3:36 PM 26.6 °F - 21.2 °F 80% 29.73 in 7.0 mi Calm Calm - N/A   Clear
3:55 PM 26.6 °F 20.0 °F 21.2 °F 80% 29.73 in 7.0 mi South 5.8 mph - N/A   Clear
4:15 PM 24.8 °F - 21.2 °F 86% 29.74 in 7.0 mi Calm Calm - N/A   Clear
4:36 PM 26.6 °F 22.6 °F 21.2 °F 80% 29.74 in 7.0 mi South 3.5 mph - N/A   Clear
4:55 PM 26.6 °F - 21.2 °F 80% 29.73 in 7.0 mi Calm Calm - N/A   Clear
5:15 PM 24.8 °F 20.5 °F 21.2 °F 86% 29.74 in 7.0 mi South 3.5 mph - N/A   Clear
5:36 PM 24.8 °F 19.1 °F 21.2 °F 86% 29.75 in 7.0 mi SSW 4.6 mph - N/A   Clear
5:55 PM 24.8 °F 16.9 °F 21.2 °F 86% 29.75 in 7.0 mi SW 6.9 mph - N/A   Mostly Cloudy
6:15 PM 26.6 °F 16.2 °F 23.0 °F 86% 29.76 in 7.0 mi SW 11.5 mph - N/A   Overcast
6:36 PM 28.4 °F 18.5 °F 24.8 °F 86% 29.77 in 7.0 mi WSW 11.5 mph - N/A   Overcast
6:55 PM 28.4 °F 18.5 °F 23.0 °F 80% 29.77 in 10.0 mi WSW 11.5 mph - N/A   Mostly Cloudy
7:15 PM 26.6 °F 15.7 °F 21.2 °F 80% 29.78 in 10.0 mi WSW 12.7 mph - N/A   Scattered Clouds
7:55 PM 24.8 °F 12.9 °F 21.2 °F 86% 29.80 in 10.0 mi WSW 13.8 mph - N/A   Clear
8:15 PM 24.8 °F 12.9 °F 21.2 °F 86% 29.81 in 10.0 mi West 13.8 mph - N/A   Clear
8:36 PM 26.6 °F 15.7 °F 21.2 °F 80% 29.81 in 10.0 mi West 12.7 mph 20.7 mph N/A   Clear
8:55 PM 26.6 °F 15.7 °F 21.2 °F 80% 29.83 in 10.0 mi West 12.7 mph - N/A   Clear
9:15 PM 28.4 °F 17.5 °F 21.2 °F 74% 29.84 in 10.0 mi WSW 13.8 mph - N/A   Clear
9:36 PM 26.6 °F 14.7 °F 21.2 °F 80% 29.85 in 10.0 mi WSW 15.0 mph - N/A   Clear
9:55 PM 28.4 °F 18.0 °F 23.0 °F 80% 29.85 in 10.0 mi West 12.7 mph - N/A   Clear
10:15 PM 28.4 °F 17.0 °F 23.0 °F 80% 29.86 in 10.0 mi WSW 15.0 mph - N/A   Clear
10:36 PM 28.4 °F 17.0 °F 24.8 °F 86% 29.88 in 10.0 mi WSW 15.0 mph - N/A   Clear
10:55 PM 33.8 °F 23.5 °F 24.8 °F 70% 29.88 in 10.0 mi West 16.1 mph - N/A   Clear
11:15 PM 33.8 °F 23.5 °F 24.8 °F 70% 29.90 in 10.0 mi West 16.1 mph - N/A   Clear
11:55 PM 33.8 °F 23.9 °F 28.4 °F 81% 29.92 in 10.0 mi West 15.0 mph - N/A Snow Light Snow